Regional Weather Roundup
Issued by NWS

Home | Current Version | Previous Version | Text Only | Print | Product List | Glossary On
Versions: 1 2 3 4 5 6 7 8 9 10 11 12 13 14 15 16 17 18 19 20 21 22 23 24 25 26 27 28 29 30 31 32 33 34 35 36 37 38 39 40 41 42 43 44 45 46 47 48 49
000
ASPQ40 PGUM 170112
RWRPQ
WEATHER ROUNDUP FOR THE MARIANAS AND MICRONESIA
NATIONAL WEATHER SERVICE TIYAN GU
1100 AM CHST WED SEP 17 2014

GUZ001>004-170200-
MARIANA ISLANDS-

CITY           SKY/WX    TMP DP  RH WIND       PRES   REMARKS
GUAM AIRPORT   LGT RAIN  75  75 100 SE7       29.94F
ANDERSEN AFB   MOSUNNY   75  73  94 SE10      29.94S
ROTA AIRPORT   LGT RAIN  77  75  94 S15       29.94S
TINIAN AP      PTSUNNY   81  75  83 SE8       29.90R
SAIPAN AP      PTSUNNY   81  75  83 S12       29.92R

$$

PMZ161-170200-
REPUBLIC OF PALAU-

CITY           SKY/WX    TMP DP  RH WIND       PRES   REMARKS
KOROR AP       PTSUNNY   86  77  74 SW13G140  29.79S HX  97
KOROR WSO      CLOUDY    84  77  79 W8        29.78F HX  94

$$

PMZ171>174-170200-
FEDERATED STATES OF MICRONESIA-

CITY           SKY/WX    TMP DP  RH WIND       PRES   REMARKS
YAP AIRPORT    CLOUDY    86  79  79 S14       29.77F HX  99
CHUUK AP       MOSUNNY   88  81  79 VRB5      29.85R HX 105
POHNPEI AP     CLOUDY    88  77  70 NE8       29.81F HX 100
POHNPEI WSO    CLOUDY    88  79  74 NE7       29.84F HX 102
KOSRAE AP      NOT AVBL

$$

PMZ181-170200-
REPUBLIC OF THE MARSHALL ISLANDS-

CITY           SKY/WX    TMP DP  RH WIND       PRES   REMARKS
KWAJALEIN AP   MOSUNNY   84  75  74 SW9       29.83F HX  92
MAJURO AP      NOT AVBL
MAJURO WSO     PTSUNNY   86  77  74 W6        29.82F HX  97

$$



USA.gov is the U.S. government's official web portal to all federal, state and local government web resources and services.